Weather History for Pascagoula, MS

Change the Weather History Date:

Monday, November 19, 2012

  Actual Average Record
Temperature  
Mean Temperature 57 °F -  
Max Temperature 73 °F 69 °F 83 °F (1975)
Min Temperature 41 °F 52 °F 26 °F (2008)
Degree Days  
Heating Degree Days 8    
Growing Degree Days 7 (Base 50)    
Moisture  
Dew Point 45 °F    
Average Humidity 84    
Maximum Humidity 100    
Minimum Humidity 41    
Precipitation  
Precipitation 0.00 in - - ()
Sea Level Pressure  
Sea Level Pressure 30.22 in    
Wind  
Wind Speed 1 mph (NE)    
Max Wind Speed 7 mph    
Max Gust Speed -    
Visibility 6 miles    
Events Fog    
Averages and records for this station are not official NWS values.
T = Trace of Precipitation, MM = Missing Value Source: NWS Daily Summary

Daily Weather History Graph

Daily Weather History Graph

Search for Another Location

Airport:

Trip Planner

Search our weather history database for the weather conditions in past years. The results will help you decide how hot, cold, wet, or windy it might be!

Date:

Astronomy

Nov. 19, 2012 Rise Set
Actual Time 6:23 AM CST 4:55 PM CST
Civil Twilight 5:58 AM CST 5:20 PM CST
Nautical Twilight 5:28 AM CST 5:50 PM CST
Astronomical Twilight 5:00 AM CST 6:18 PM CST
Moon 11:35 AM CST 11:10 PM CST
Length of Visible Light 11h 22m
Length of Day
10h 31m
Waxing Crescent, 41% of the Moon is Illuminated
Nov 19
Waxing Crescent
Nov 20
First Quarter
Nov 28
Full
Dec 6
Last Quarter
Dec 13
New

Hourly Weather History & Observations

Time (CST) Temp. Windchill Dew Point Humidity Pressure Visibility Wind Dir Wind Speed Gust Speed Precip Events Conditions
12:53 AM 43.0 °F - 42.1 °F 97% 30.28 in 10.0 mi Calm Calm - N/A   Clear
1:53 AM 44.1 °F - 42.1 °F 93% 30.28 in 10.0 mi Calm Calm - N/A   Clear
2:53 AM 41.0 °F - 39.0 °F 93% 30.27 in 10.0 mi Calm Calm - N/A   Clear
3:53 AM 41.0 °F - 39.9 °F 96% 30.27 in 10.0 mi Calm Calm - N/A   Clear
4:53 AM 41.0 °F 39.0 °F 39.0 °F 93% 30.26 in 10.0 mi North 3.5 mph - N/A   Clear
5:53 AM 43.0 °F - 39.9 °F 89% 30.27 in 10.0 mi Calm Calm - N/A   Clear
6:53 AM 44.1 °F - 41.0 °F 89% 30.28 in 10.0 mi Calm Calm - N/A   Clear
7:53 AM 52.0 °F - 45.0 °F 77% 30.29 in 10.0 mi Calm Calm - N/A   Clear
8:53 AM 57.9 °F - 46.9 °F 67% 30.29 in 10.0 mi ENE 3.5 mph - N/A   Clear
9:53 AM 64.9 °F - 51.1 °F 61% 30.29 in 10.0 mi Variable 3.5 mph - N/A   Clear
10:53 AM 68.0 °F - 52.0 °F 56% 30.28 in 10.0 mi Calm Calm - N/A   Clear
11:53 AM 71.1 °F - 50.0 °F 47% 30.25 in 10.0 mi ENE 3.5 mph - N/A   Partly Cloudy
12:53 PM 72.0 °F - 50.0 °F 46% 30.23 in 10.0 mi Calm Calm - N/A   Scattered Clouds
1:53 PM 71.1 °F - 46.9 °F 42% 30.20 in 10.0 mi Calm Calm - N/A   Scattered Clouds
2:53 PM 73.0 °F - 48.0 °F 41% 30.18 in 10.0 mi NE 6.9 mph - N/A   Mostly Cloudy
3:53 PM 66.9 °F - 53.1 °F 61% 30.18 in 10.0 mi SW 4.6 mph - N/A   Clear
4:53 PM 60.1 °F - 51.1 °F 72% 30.18 in 10.0 mi Calm Calm - N/A   Clear
5:53 PM 51.1 °F - 48.0 °F 89% 30.19 in 10.0 mi Calm Calm - N/A   Clear
6:53 PM 50.0 °F - 48.0 °F 93% 30.20 in 9.0 mi Calm Calm - N/A   Clear
7:53 PM 48.9 °F - 46.9 °F 93% 30.21 in 7.0 mi Calm Calm - N/A   Clear
8:12 PM 46.4 °F - 44.6 °F 93% 30.20 in 1.5 mi Calm Calm - N/A   Clear
8:20 PM 46.4 °F - 44.6 °F 93% 30.20 in 0.5 mi Calm Calm - N/A Fog Fog
8:28 PM 48.2 °F - 46.4 °F 93% 30.20 in 2.0 mi Calm Calm - N/A   Clear
8:44 PM 46.4 °F - 44.6 °F 93% 30.20 in 6.0 mi Calm Calm - N/A   Clear
9:01 PM 46.4 °F - 44.6 °F 93% 30.20 in 4.0 mi Calm Calm - N/A   Clear
9:15 PM 46.4 °F - 44.6 °F 93% 30.20 in 2.5 mi Calm Calm - N/A   Clear
9:28 PM 46.4 °F - 44.6 °F 93% 30.20 in 0.8 mi Calm Calm - N/A   Clear
9:40 PM 44.6 °F - 42.8 °F 93% 30.20 in 2.0 mi Calm Calm - N/A   Clear
9:48 PM 44.6 °F - 44.6 °F 100% 30.19 in 6.0 mi Calm Calm - N/A   Clear
9:51 PM 44.6 °F - 42.8 °F 93% 30.19 in 1.5 mi Calm Calm - N/A   Clear
9:53 PM 45.0 °F - 43.0 °F 93% 30.20 in 1.0 mi Calm Calm - N/A   Clear
10:02 PM 44.6 °F - 44.6 °F 100% 30.19 in 3.0 mi Calm Calm - N/A   Clear
10:53 PM 44.1 °F - 43.0 °F 96% 30.20 in 6.0 mi Calm Calm - N/A   Clear
11:13 PM 44.6 °F - 42.8 °F 93% 30.19 in 2.0 mi Calm Calm - N/A   Clear
11:29 PM 44.6 °F - 42.8 °F 93% 30.19 in 0.8 mi Calm Calm - N/A   Clear
11:36 PM 44.6 °F - 42.8 °F 93% 30.19 in 1.8 mi Calm Calm - N/A   Clear
11:38 PM 44.6 °F - 42.8 °F 93% 30.19 in 3.0 mi Calm Calm - N/A   Clear
11:51 PM 42.8 °F - 42.8 °F 100% 30.19 in 1.8 mi Calm Calm - N/A   Clear
11:53 PM 43.0 °F - 42.1 °F 97% 30.20 in 1.5 mi Calm Calm - N/A   Clear